FW6299 Weather Reports


Display with metric or nautical units.
time (UTC)temp
F
wind
direction
speed
MPH
gust
MPH
rain 1hr
in
rain 24hr
in
rain mn
in
humidity
%
barometer
mb
20260508213010 68 78 0.0 3.0 0.00 0.00 0.00 44 1012.8
20260508211506 69 267 0.0 3.0 0.00 0.00 0.00 42 1012.8
20260508210011 69 5 0.0 2.0 0.00 0.00 0.00 44 1012.8
20260508204515 69 11 0.0 7.0 0.00 0.00 0.00 41 1013.0
20260508203019 70 340 0.0 3.0 0.00 0.00 0.00 36 1013.0
20260508201522 69 277 0.0 5.0 0.00 0.00 0.00 41 1013.2
20260508200039 70 144 0.0 4.0 0.00 0.00 0.00 42 1013.9
20260508194534 68 80 0.0 7.0 0.00 0.00 0.00 46 1014.3
20260508191539 69 280 0.0 3.0 0.00 0.00 0.00 40 1014.7
20260508190049 68 5 0.0 6.0 0.00 0.00 0.00 42 1014.8
20260508184547 67 190 1.0 6.0 0.00 0.00 0.00 39 1015.2
20260508183049 66 5 1.0 8.0 0.00 0.00 0.00 42 1015.3
20260508181615 66 309 0.0 7.0 0.00 0.00 0.00 36 1015.5
20260508180006 65 103 0.0 7.0 0.00 0.00 0.00 40 1015.7
20260508174517 65 124 0.0 8.0 0.00 0.00 0.00 36 1015.7
20260508173058 65 342 1.0 5.0 0.00 0.00 0.00 48 1016.0
20260508171557 64 10 1.0 4.0 0.00 0.00 0.00 47 1016.4
20260508170059 63 86 0.0 7.0 0.00 0.02 0.00 47 1016.9
20260508164602 63 215 0.0 9.0 0.00 0.02 0.00 48 1017.2
20260508164505 63 215 0.0 9.0 0.00 0.02 0.00 48 1017.2
20260508163058 62 286 1.0 5.0 0.00 0.02 0.00 47 1017.4
20260508163002 62 286 1.0 5.0 0.00 0.02 0.00 50 1017.4
20260508161509 62 13 0.0 1.0 0.00 0.02 0.00 48 1017.6
20260508160032 62 68 0.0 4.0 0.00 0.02 0.00 54 1017.8
20260508154516 62 25 2.0 7.0 0.00 0.02 0.00 47 1018.1
20260508153022 61 302 0.0 3.0 0.00 0.02 0.00 50 1018.1
20260508151524 60 67 0.0 4.0 0.00 0.02 0.00 53 1018.3
20260508150021 58 219 0.0 4.0 0.00 0.04 0.00 51 1018.3
20260508144522 57 197 2.0 5.0 0.00 0.04 0.00 65 1018.4
20260508143031 57 196 0.0 4.0 0.00 0.04 0.00 74 1018.4
20260508141542 56 186 2.0 5.0 0.00 0.04 0.00 73 1018.4
20260508140026 57 82 0.0 0.0 0.00 0.04 0.00 83 1018.4
20260508134512 55 124 0.0 0.0 0.00 0.04 0.00 83 1018.3
20260508133020 54 138 0.0 0.0 0.00 0.04 0.00 83 1018.4
20260508131518 54 103 0.0 0.0 0.00 0.04 0.00 86 1018.4
20260508130020 51 103 0.0 0.0 0.00 0.05 0.00 88 1018.2
20260508124520 49 101 0.0 0.0 0.00 0.05 0.00 91 1018.4
20260508123100 48 103 0.0 0.0 0.00 0.05 0.00 93 1018.4
20260508123003 48 103 0.0 0.0 0.00 0.05 0.00 94 1018.3
20260508121506 46 100 0.0 0.0 0.00 0.05 0.00 94 1018.2
20260508120008 45 100 0.0 0.0 0.00 0.05 0.00 95 1017.9
20260508114511 44 100 0.0 3.0 0.00 0.05 0.00 95 1017.6
20260508113016 43 101 0.0 2.0 0.00 0.05 0.00 95 1017.5
20260508111517 43 121 0.0 0.0 0.00 0.05 0.00 95 1017.2
20260508110021 42 121 0.0 1.0 0.00 0.06 0.00 94 1017.0
20260508104523 42 128 0.0 0.0 0.00 0.06 0.00 92 1016.9
20260508103030 42 128 0.0 0.0 0.00 0.06 0.00 92 1016.8
20260508101537 42 128 0.0 1.0 0.00 0.06 0.00 91 1016.6
20260508100030 43 219 0.0 0.0 0.00 0.06 0.00 90 1016.5
20260508094549 43 219 0.0 0.0 0.00 0.06 0.00 90 1016.4
20260508093040 43 219 0.0 0.0 0.00 0.06 0.00 89 1016.3
20260508091539 44 219 0.0 0.0 0.00 0.06 0.00 89 1016.2
20260508090058 44 219 0.0 0.0 0.00 0.07 0.00 87 1016.3
20260508084547 45 219 0.0 0.0 0.00 0.07 0.00 88 1016.2
20260508083115 45 219 0.0 0.0 0.00 0.07 0.00 88 1015.9
20260508081552 46 219 0.0 0.0 0.00 0.07 0.00 88 1016.0
20260508080051 46 219 0.0 1.0 0.00 0.07 0.00 89 1016.0
20260508074555 46 219 0.0 0.0 0.00 0.07 0.00 88 1016.0
20260508073002 46 219 0.0 0.0 0.00 0.07 0.00 88 1016.1
20260508071506 47 219 0.0 0.0 0.00 0.07 0.00 87 1016.1
20260508070011 47 219 0.0 0.0 0.00 0.08 0.00 87 1016.0
20260508064528 48 219 0.0 0.0 0.00 0.08 0.00 87 1015.8
20260508063052 48 219 0.0 0.0 0.00 0.08 0.00 88 1015.9
20260508061559 48 219 0.0 0.0 0.00 0.08 0.00 89 1015.9
20260508060002 49 219 0.0 0.0 0.00 0.08 0.00 89 1015.9
20260508054507 48 219 0.0 0.0 0.00 0.08 0.00 90 1016.0
20260508053020 48 219 0.0 0.0 0.00 0.08 0.00 92 1016.1
20260508051515 48 219 0.0 0.0 0.00 0.08 0.00 92 1016.1
20260508050025 49 219 0.0 0.0 0.00 0.08 0.00 92 1015.9
20260508044521 49 219 0.0 0.0 0.00 0.08 0.00 92 1015.7
20260508043024 49 219 0.0 0.0 0.00 0.08 0.00 92 1015.6
20260508041505 49 219 0.0 0.0 0.00 0.08 0.00 91 1015.4
20260508040001 50 219 0.0 0.0 0.00 0.09 0.08 91 1015.2
20260508034502 50 219 0.0 0.0 0.00 0.09 0.08 91 1015.2
20260508033057 51 219 0.0 0.0 0.00 0.09 0.08 91 1015.1
20260508031539 52 219 0.0 0.0 0.00 0.09 0.08 92 1015.2
20260508030045 52 219 0.0 0.0 0.00 0.09 0.08 92 1015.4
20260508024547 52 219 0.0 0.0 0.00 0.09 0.08 91 1015.2
20260508023049 52 219 1.0 3.0 0.00 0.09 0.08 91 1014.8
20260508021547 53 219 0.0 0.0 0.00 0.09 0.08 90 1014.5
20260508020057 53 219 0.0 0.0 0.00 0.09 0.08 90 1014.4
20260508014557 53 219 0.0 1.0 0.00 0.09 0.08 90 1014.2
20260508013051 54 219 0.0 0.0 0.00 0.09 0.08 89 1013.8
20260508011553 54 219 0.0 0.0 0.00 0.09 0.08 88 1013.6
20260508010058 55 219 1.0 4.0 0.00 0.10 0.08 87 1013.2
20260508010002 55 219 2.0 4.0 0.00 0.10 0.08 87 1013.2
20260508004514 56 225 0.0 4.0 0.00 0.10 0.08 85 1013.2
20260508003033 57 160 2.0 6.0 0.00 0.10 0.08 84 1013.0
20260508001516 58 236 0.0 0.0 0.00 0.10 0.08 78 1012.8
20260508000024 59 244 0.0 0.0 0.00 0.14 0.08 72 1012.8
20260507234526 60 244 0.0 0.0 0.00 0.14 0.08 69 1012.8
20260507233039 61 206 0.0 3.0 0.00 0.14 0.08 68 1012.8
20260507231541 61 202 0.0 3.0 0.00 0.14 0.08 67 1012.8
20260507230043 61 202 0.0 3.0 0.00 0.14 0.08 66 1012.8
20260507224601 62 206 1.0 4.0 0.00 0.14 0.08 65 1012.9
20260507223031 62 190 0.0 3.0 0.00 0.14 0.08 64 1012.9
20260507221538 62 257 2.0 4.0 0.00 0.14 0.08 66 1012.9
20260507220050 62 303 0.0 3.0 0.00 0.14 0.08 66 1012.6
20260507214551 61 241 0.0 9.0 0.00 0.14 0.08 67 1012.4